[[{"header":{"parameterUnit":"m.s-1","parameterCategory":1,"la1":30.2991,"la2":30.254,"lo1":-89.0895,"lo2":-89.0444,"dy":0.0017,"dx":0.0017,"nx":28,"ny":28,"refTime":"2026-01-01T03:00:00:Z","depth":0,"parameterNumber":2,"parameterNumberName":"U-component_of_WINDS"},"data":[0,0,0,0,0,0,0,0,0,0,0,0,0,0,0,0,0,0,0,0,0,0,0,0,0,0,0,0,0,0,0,0,0,0,0,0,0,0,0,0,0,0,0,0,0,0,0,0,0,0,0,0,0,0,0,0,0,0,-0.5046,-0.5045,0,-0.4979,-0.4978,-0.4977,-0.4957,-0.4957,-0.4958,-0.4958,-0.4884,-0.4882,-0.488,0,0,0,0,0,0,0,0,0,0,0,0,0,-0.5151,-0.5149,-0.5046,-0.5045,-0.5044,-0.4979,-0.4978,-0.4977,-0.4957,-0.4957,-0.4958,-0.4958,-0.4885,-0.4882,-0.488,0,0,0,0,0,0,0,0,0,0,0,0,0,-0.5097,-0.5149,-0.5046,-0.5027,-0.5024,-0.4979,-0.4978,-0.4977,-0.4957,-0.4957,-0.4958,-0.4958,-0.4886,-0.4883,-0.4879,-0.4847,0,0,-0.4869,-0.4867,0,0,0,0,0,0,0,0,-0.51,-0.5093,-0.503,-0.5028,-0.5025,-0.4977,-0.4988,-0.4933,-0.4957,-0.4982,-0.4958,-0.4959,-0.4914,-0.4909,-0.4895,-0.4844,-0.4841,-0.4869,-0.4866,-0.4865,-0.4864,0,0,0,0,0,0,0,-0.5104,-0.5096,-0.5019,-0.5029,-0.5026,-0.5019,-0.5012,-0.4977,-0.4946,-0.498,-0.4979,-0.4971,-0.4913,-0.4898,-0.4893,-0.484,-0.4869,-0.4866,-0.4863,-0.4862,-0.4755,-0.4755,0,0,0,0,0,0,-0.5111,-0.5099,-0.5021,-0.5017,-0.5065,-0.5017,-0.5009,-0.4992,-0.4946,-0.494,-0.4971,-0.497,-0.4904,-0.4897,-0.489,-0.4848,-0.4865,-0.4862,-0.486,-0.4756,-0.4755,-0.4754,0,0,0,0,0,0,-0.5114,-0.5105,-0.5024,-0.5058,-0.5047,-0.5014,-0.4995,-0.499,-0.4975,-0.4939,-0.4933,-0.4962,-0.4904,-0.4895,-0.4858,-0.4845,-0.486,-0.4857,-0.4757,-0.4756,-0.4755,-0.4764,0,0,0,0,0,0,-0.5117,-0.5106,-0.5095,-0.5058,-0.5045,-0.4995,-0.4995,-0.4988,-0.497,-0.4969,-0.4929,-0.4923,-0.4904,-0.4863,-0.4854,-0.484,-0.4854,-0.4758,-0.4757,-0.4755,-0.4764,-0.4763,-0.4762,0,0,0,0,0,-0.5121,-0.51,-0.5095,-0.5085,-0.5031,-0.4994,-0.4987,-0.4967,-0.4969,-0.4957,-0.4933,-0.4924,-0.4848,-0.4859,-0.4849,-0.4834,-0.4759,-0.4757,-0.4755,-0.4765,-0.4763,-0.4762,0,0,0,0,0,0,-0.5136,-0.5095,-0.5088,-0.5055,-0.5029,-0.4991,-0.4975,-0.4966,-0.4937,-0.4937,-0.4911,-0.4902,-0.4866,-0.4846,-0.486,-0.4799,-0.4803,-0.4799,-0.4813,-0.4811,-0.481,-0.4815,-0.4852,0,0,0,0,0,-0.5136,-0.5111,-0.5075,-0.5049,-0.5036,-0.5008,-0.4991,-0.4978,-0.4948,-0.4936,-0.491,-0.488,-0.4849,-0.4829,-0.4799,-0.4761,-0.4751,-0.4746,-0.4744,-0.4743,-0.474,-0.4715,-0.4712,-0.4749,-0.4749,-0.4749,0,0,-0.5135,-0.5109,-0.5095,-0.5052,-0.5029,-0.5002,-0.4999,-0.497,-0.4949,-0.4931,-0.4895,-0.4874,-0.4839,-0.48,-0.4782,-0.4783,-0.4727,-0.4741,-0.4741,-0.4738,-0.4713,-0.471,-0.4707,-0.4747,-0.4748,-0.4748,0,0,-0.5118,-0.5097,-0.5072,-0.5049,-0.5016,-0.4997,-0.499,-0.4954,-0.494,-0.4902,-0.4888,-0.4861,-0.4809,-0.4783,-0.4764,-0.4734,-0.4724,-0.4725,-0.4718,-0.4694,-0.4691,-0.4688,-0.4675,-0.4671,-0.4722,-0.4722,-0.4722,0,-0.5121,-0.5081,-0.506,-0.5032,-0.5012,-0.4996,-0.4968,-0.4947,-0.4904,-0.489,-0.4892,-0.4824,-0.4799,-0.4753,-0.4746,-0.4731,-0.4721,-0.4729,-0.4694,-0.469,-0.4688,-0.4675,-0.467,-0.4722,-0.4722,-0.4722,-0.4722,0,-0.5084,-0.5056,-0.5039,-0.4999,-0.4977,-0.495,-0.4923,-0.4903,-0.489,-0.487,-0.483,-0.48,-0.4762,-0.475,-0.4737,-0.4701,-0.4702,-0.4699,-0.4702,-0.4685,-0.4672,-0.4667,-0.4722,-0.4722,-0.4722,-0.4722,0,0,-0.5077,-0.5024,-0.5018,-0.4998,-0.4959,-0.4935,-0.4905,-0.4869,-0.4851,-0.4822,-0.4794,-0.4749,-0.4745,-0.4723,-0.4707,-0.4686,-0.4661,-0.4685,-0.4684,-0.468,-0.4616,-0.4617,-0.4612,-0.4654,-0.4654,-0.4653,-0.4618,0,-0.5054,-0.5002,-0.4981,-0.4938,-0.491,-0.4892,-0.4865,-0.4837,-0.4816,-0.4788,-0.4764,-0.4732,-0.4731,-0.4716,-0.4695,-0.4669,-0.4648,-0.4671,-0.4626,-0.4624,-0.4634,-0.4606,-0.4609,-0.4577,-0.4613,-0.4612,-0.4612,0,-0.5022,-0.4992,-0.4946,-0.4906,-0.4894,-0.4871,-0.4834,-0.4808,-0.4773,-0.4759,-0.4733,-0.4718,-0.4683,-0.4688,-0.4637,-0.4654,-0.4633,-0.4617,-0.4616,-0.461,-0.4617,-0.4598,-0.4567,-0.4562,-0.4604,-0.4605,-0.4606,0,-0.5019,-0.4967,-0.4932,-0.4916,-0.487,-0.4853,-0.4833,-0.4799,-0.4777,-0.4744,-0.4729,-0.4693,-0.4672,-0.4642,-0.4616,-0.4623,-0.4567,-0.4571,-0.4552,-0.4552,-0.454,-0.4541,-0.4505,-0.453,-0.453,-0.453,-0.453,0,-0.4995,-0.4967,-0.493,-0.4908,-0.4875,-0.485,-0.4817,-0.4795,-0.4764,-0.4736,-0.4718,-0.4692,-0.4659,-0.4628,-0.4607,-0.4566,-0.4557,-0.4543,-0.4537,-0.4544,-0.4545,-0.453,-0.453,-0.4529,-0.4529,-0.4529,-0.453,0,-0.4987,-0.4961,-0.4921,-0.488,-0.4869,-0.4846,-0.481,-0.4786,-0.4764,-0.4728,-0.4718,-0.4683,-0.4644,-0.4615,-0.4565,-0.4551,-0.4507,-0.4502,-0.4519,-0.4516,-0.4498,-0.4499,-0.4448,-0.4439,-0.4472,-0.4472,-0.4472,0,-0.4973,-0.4951,-0.4907,-0.4887,-0.4867,-0.4836,-0.4813,-0.4786,-0.4763,-0.472,-0.4701,-0.4662,-0.4628,-0.4567,-0.4535,-0.4496,-0.4488,-0.4473,-0.4482,-0.4488,-0.4485,-0.4487,-0.4483,-0.4472,-0.4472,-0.4472,-0.4471,0,-0.4951,-0.4938,-0.4908,-0.4871,-0.4845,-0.4814,-0.4784,-0.4768,-0.4735,-0.4709,-0.467,-0.4644,-0.4592,-0.4552,-0.4509,-0.4485,-0.4471,-0.4469,-0.4462,-0.4467,-0.4477,-0.4469,-0.4514,-0.447,-0.447,-0.447,-0.447,-0.447,-0.4938,-0.4916,-0.4881,-0.4846,-0.482,-0.4791,-0.4766,-0.4741,-0.4708,-0.4664,-0.465,-0.4608,-0.457,-0.4511,-0.4486,-0.4452,-0.4451,-0.4442,-0.4439,-0.4437,-0.4436,-0.4484,-0.4444,-0.4444,-0.4444,-0.4444,-0.4444,0,-0.4913,-0.4889,-0.4857,-0.4815,-0.4786,-0.4777,-0.4741,-0.4718,-0.4682,-0.4648,-0.4615,-0.4568,-0.4528,-0.4492,-0.445,-0.4428,-0.4421,-0.4418,-0.4418,-0.4412,-0.444,-0.4449,-0.4424,-0.4424,-0.4424,-0.4424,-0.4424,-0.4424,-0.4897,-0.4859,-0.4842,-0.4789,-0.4764,-0.4725,-0.4705,-0.4676,-0.4649,-0.4597,-0.4564,-0.4541,-0.4506,-0.446,-0.4421,-0.4411,-0.4396,-0.4394,-0.4382,-0.4409,-0.4411,-0.4413,-0.4422,-0.4391,-0.4391,-0.4357,-0.4357,-0.4356]},{"header":{"parameterUnit":"m.s-1","parameterCategory":1,"la1":30.2991,"la2":30.254,"lo1":-89.0895,"lo2":-89.0444,"dy":0.0017,"dx":0.0017,"nx":28,"ny":28,"refTime":"2026-01-01T03:00:00:Z","depth":0,"parameterNumber":3,"parameterNumberName":"V-component_of_WINDS"},"data":[0,0,0,0,0,0,0,0,0,0,0,0,0,0,0,0,0,0,0,0,0,0,0,0,0,0,0,0,0,0,0,0,0,0,0,0,0,0,0,0,0,0,0,0,0,0,0,0,0,0,0,0,0,0,0,0,0,0,4.7275,4.7275,0,4.7258,4.7258,4.7257,4.7218,4.7217,4.7216,4.7215,4.7195,4.7195,4.7195,0,0,0,0,0,0,0,0,0,0,0,0,0,4.7274,4.7274,4.7275,4.7275,4.7274,4.7258,4.7258,4.7257,4.7218,4.7217,4.7216,4.7215,4.7195,4.7195,4.7195,0,0,0,0,0,0,0,0,0,0,0,0,0,4.7267,4.7274,4.7275,4.7253,4.7251,4.7258,4.7258,4.7257,4.7218,4.7217,4.7216,4.7214,4.7195,4.7195,4.7196,4.7222,0,0,4.7197,4.7197,0,0,0,0,0,0,0,0,4.7267,4.7267,4.7256,4.7254,4.7252,4.7239,4.725,4.7245,4.7218,4.723,4.7215,4.7214,4.721,4.7209,4.7209,4.7221,4.722,4.7197,4.7197,4.7197,4.7197,0,0,0,0,0,0,0,4.7268,4.7268,4.7268,4.7256,4.7254,4.7244,4.7242,4.7249,4.7227,4.7229,4.7226,4.7225,4.7209,4.7208,4.7208,4.722,4.7197,4.7197,4.7197,4.7197,4.7259,4.726,0,0,0,0,0,0,4.7272,4.7268,4.7268,4.7267,4.7257,4.7245,4.7242,4.7244,4.7227,4.7223,4.7226,4.7223,4.7209,4.7208,4.7207,4.7241,4.7197,4.7197,4.7197,4.7257,4.7259,4.7261,0,0,0,0,0,0,4.7272,4.7272,4.7269,4.7267,4.7266,4.7246,4.7249,4.7244,4.7244,4.7225,4.7221,4.723,4.7208,4.7207,4.722,4.7239,4.7197,4.7198,4.7256,4.7258,4.726,4.7306,0,0,0,0,0,0,4.7272,4.7272,4.7282,4.7268,4.7266,4.7282,4.725,4.7245,4.7245,4.7241,4.7227,4.7223,4.7206,4.722,4.722,4.7239,4.7198,4.7254,4.7257,4.7259,4.7303,4.731,4.7315,0,0,0,0,0,4.7272,4.7293,4.7282,4.7283,4.7278,4.7283,4.7282,4.7263,4.7247,4.7257,4.7245,4.7224,4.7237,4.7221,4.7222,4.7241,4.7252,4.7256,4.7259,4.73,4.7308,4.7315,0,0,0,0,0,0,4.7308,4.7291,4.7278,4.7296,4.7292,4.7277,4.7288,4.7272,4.7271,4.7267,4.7243,4.724,4.7258,4.725,4.7233,4.7269,4.7242,4.7245,4.7273,4.7281,4.7287,4.7289,4.7198,0,0,0,0,0,4.7318,4.7325,4.7309,4.7326,4.7325,4.7308,4.7309,4.7295,4.7289,4.7287,4.7276,4.7271,4.7274,4.7277,4.7278,4.7302,4.73,4.7315,4.7322,4.7327,4.7331,4.7347,4.7355,4.7271,4.7271,4.7271,0,0,4.7338,4.733,4.7335,4.7333,4.7328,4.7337,4.7306,4.7314,4.7321,4.7287,4.7301,4.7293,4.7286,4.7306,4.7314,4.73,4.7354,4.7331,4.7335,4.7336,4.7351,4.7359,4.7367,4.7273,4.7273,4.7273,0,0,4.7381,4.7374,4.739,4.7387,4.7381,4.737,4.7374,4.7362,4.7357,4.737,4.7348,4.7355,4.736,4.7357,4.7356,4.7404,4.7386,4.7405,4.7438,4.7455,4.7462,4.7468,4.7488,4.7495,4.7409,4.7409,4.7409,0,4.7406,4.7418,4.7399,4.7412,4.7413,4.7386,4.7404,4.7401,4.7395,4.7397,4.7382,4.7392,4.7385,4.7406,4.7419,4.7418,4.7424,4.7407,4.7462,4.7468,4.7473,4.7493,4.75,4.7411,4.7411,4.7411,4.741,0,4.7453,4.7461,4.7475,4.7474,4.7476,4.7491,4.7475,4.748,4.7468,4.7459,4.7475,4.7467,4.7469,4.7472,4.7458,4.7493,4.7486,4.7467,4.744,4.7484,4.7502,4.7509,4.7415,4.7414,4.7413,4.7413,0,0,4.7514,4.7506,4.7512,4.7513,4.7507,4.7514,4.7528,4.7532,4.7539,4.7537,4.7551,4.7558,4.7543,4.7542,4.7528,4.7543,4.7586,4.7522,4.7522,4.7538,4.7629,4.7645,4.7654,4.7574,4.7575,4.7576,4.7631,0,4.7556,4.7582,4.7568,4.7596,4.7606,4.7583,4.7597,4.7595,4.7588,4.7596,4.7588,4.7596,4.7573,4.7573,4.7586,4.7578,4.7605,4.7574,4.7588,4.7589,4.7593,4.7663,4.7678,4.773,4.7638,4.7639,4.7639,0,4.7608,4.7613,4.7642,4.764,4.7643,4.7656,4.7661,4.7668,4.7668,4.7662,4.7665,4.7649,4.7665,4.7638,4.7662,4.7641,4.7647,4.7644,4.7646,4.7648,4.7618,4.7669,4.7746,4.7755,4.765,4.7649,4.7648,0,4.7655,4.7667,4.7688,4.769,4.7686,4.7696,4.7695,4.7693,4.7698,4.7703,4.7707,4.7712,4.7716,4.7721,4.7709,4.7689,4.7736,4.7706,4.7733,4.7734,4.7744,4.7744,4.7826,4.7744,4.7744,4.7744,4.7744,0,4.7704,4.7724,4.771,4.7723,4.7746,4.7731,4.7754,4.775,4.775,4.7763,4.7742,4.7755,4.7736,4.7748,4.7738,4.7762,4.7762,4.776,4.7757,4.7763,4.7764,4.7767,4.7764,4.7746,4.7745,4.7745,4.7745,0,4.7759,4.775,4.7773,4.7769,4.7769,4.7787,4.7784,4.7797,4.779,4.7807,4.781,4.78,4.7813,4.7801,4.7812,4.7806,4.7839,4.783,4.784,4.7838,4.7867,4.7866,4.7955,4.7968,4.7876,4.7877,4.7878,0,4.7793,4.7808,4.7808,4.7817,4.7818,4.7831,4.7837,4.7824,4.7832,4.7835,4.7849,4.7861,4.7869,4.7892,4.7886,4.7896,4.7888,4.7919,4.7889,4.7897,4.7893,4.7893,4.7897,4.7926,4.7927,4.7927,4.7928,0,4.7854,4.785,4.7861,4.7872,4.7881,4.7888,4.7894,4.7902,4.7889,4.7899,4.7913,4.7921,4.7935,4.7949,4.7958,4.7957,4.7942,4.7938,4.7945,4.7952,4.7959,4.796,4.7859,4.7936,4.7935,4.7934,4.7934,4.7934,4.7901,4.7916,4.792,4.7934,4.7938,4.7945,4.7959,4.7956,4.7969,4.7981,4.7972,4.7991,4.7994,4.8005,4.8007,4.8023,4.801,4.8019,4.8022,4.8025,4.8032,4.7955,4.8024,4.8023,4.8023,4.8023,4.8023,0,4.7964,4.7967,4.798,4.7991,4.8004,4.799,4.7997,4.8008,4.8025,4.803,4.8041,4.8061,4.8075,4.8072,4.8085,4.8099,4.8092,4.8103,4.8103,4.8104,4.804,4.8034,4.8108,4.8108,4.8108,4.8108,4.8108,4.8108,4.7998,4.8025,4.8023,4.8052,4.8054,4.8074,4.808,4.8088,4.8092,4.8116,4.8128,4.8127,4.813,4.8145,4.8158,4.8157,4.8164,4.8178,4.8175,4.8116,4.8107,4.8099,4.8094,4.8179,4.8179,4.8238,4.8238,4.8239]}]]